Flag for Botswana Weather past 2 weeks in Molepolole, Botswana

Now
77 °F

Passing clouds.


Feels Like: 78 °F
Forecast: 56 / 79 °F
Wind: 8 mph from Northeast

Location: Seretse Khama International Airport


UV Index: 7 (High)

Visibility: N/A


Pressure: 30.30 "Hg

Humidity: 42%

Dew point: 52 °F

Location of MolepololeLocation

Historic Weather in Molepolole

°F

Molepolole temperature yesterday

Maximum temperature yesterday: 77 °F (at 2:00 PM)
Minimum temperature yesterday: 50 °F (at 7:00 AM)
Average temperature yesterday: 63 °F

Past Weeks' High & Low Weather Summary

 TemperatureHumidityPressure
High84 °F (Apr 5, 3:00 PM)100% (Apr 5, 1:00 AM)30.42 "Hg (Apr 5, 1:00 AM)
Low50 °F (Apr 18, 7:00 AM)20% (Apr 5, 4:00 PM)29.95 "Hg (Apr 13, 6:00 PM)
Average66 °F69%30.25 "Hg
* Reported Apr 4 11:00 AM — Apr 19 11:00 AM, Molepolole, Weather by CustomWeather, © 2014

Note: Actual official high and low records may vary slightly from our data, if they occured in-between our weather recording intervals... More about our weather records

Advertising

Historic Weather Conditions — Data for Previous 24 hours

 ConditionsComfort  
Time TempWeatherWind HumidityBarometerVisibility
11:00 AM
Apr 19
75 °FPassing clouds.3 mph44%30.33 "HgN/A
10:00 AM72 °FSunny.1 mph53%30.33 "Hg10 mi
9:00 AM66 °FSunny.1 mph68%30.33 "Hg10 mi
8:00 AM57 °FPassing clouds.3 mph94%30.30 "HgN/A
6:00 AM52 °FClear.2 mph100%30.27 "Hg6 mi
5:00 AM52 °FClear.2 mph94%30.24 "Hg5 mi
4:00 AM54 °FClear.2 mph100%30.24 "Hg5 mi
3:00 AM54 °FClear.1 mph94%30.24 "Hg4 mi
2:00 AM55 °FClear.1 mph94%30.24 "Hg10 mi
1:00 AM57 °FClear.2 mph82%30.24 "Hg10 mi
12:00 AM59 °FClear.2 mph82%30.24 "Hg10 mi
11:00 PM
Apr 18
61 °FClear.1 mph77%30.24 "Hg10 mi
10:00 PM59 °FClear.2 mph82%30.24 "Hg10 mi
9:00 PM61 °FClear.1 mph83%30.24 "Hg10 mi
8:00 PM64 °FClear.6 mph64%30.21 "Hg10 mi
7:00 PM66 °FClear.6 mph64%30.21 "Hg10 mi
6:00 PM72 °FPassing clouds.6 mph50%30.21 "HgN/A
5:00 PM75 °FPassing clouds.5 mph41%30.18 "HgN/A
4:00 PM77 °FScattered clouds.7 mph36%30.18 "HgN/A
3:00 PM77 °FScattered clouds.6 mph39%30.18 "HgN/A
2:00 PM77 °FPassing clouds.5 mph42%30.21 "HgN/A
1:00 PM73 °FPassing clouds.5 mph47%30.21 "HgN/A
12:00 PM72 °FPassing clouds.6 mph57%30.24 "HgN/A
Weather by CustomWeather, © 2014

See weather overview